Stations météo

réclame
Mon MeteoGroup
Muret-Lherm, France (7628): Température de l'air & dewpoint: 11.07.2018 13:00:00 - 17.07.2018 13:00:00 (CEST)Muret-Lherm, France (7628): Vitesse du vent & gusts: 11.07.2018 13:00:00 - 17.07.2018 13:00:00 (CEST)Muret-Lherm, France (7628): Direction du vent: 11.07.2018 13:00:00 - 17.07.2018 13:00:00 (CEST)Muret-Lherm, France (7628): reduced air pressure: 11.07.2018 13:00:00 - 17.07.2018 13:00:00 (CEST)Muret-Lherm, France (7628): visibility: 11.07.2018 13:00:00 - 17.07.2018 13:00:00 (CEST)Muret-Lherm, France (7628): Quantités de précipitations: 11.07.2018 13:00:00 - 17.07.2018 13:00:00 (CEST)
Date & Time tt [°C] td [°C] ff [km/h] ff [knt] fx [km/h] fx [knt] dd ppp [hPa] vv [km] rr [mm]
17.07.2018 13:00:00 24,9 16,6 4 2 11 6 NE 1020,2 19 0,0
17.07.2018 12:00:00 24,0 17,0 4 2 11 6 SSE 1020,5 20 0,0
17.07.2018 11:00:00 23,9 16,9 4 2 11 6 ENE 1020,6 20 0,0
17.07.2018 10:00:00 21,5 17,5 4 2 9 5 SSW 1021,1 20 0,0
17.07.2018 09:00:00 20,2 16,8 8 4 11 6 NW 1021,2 20 0,0
17.07.2018 08:00:00 18,4 16,9 5 3 9 5 W 1021,2 20 -
17.07.2018 07:00:00 17,2 16,2 4 2 9 5 WNW 1021,4 20 0,0
17.07.2018 06:00:00 18,3 16,8 8 4 15 8 W 1021,1 20 0,0
17.07.2018 05:00:00 18,6 17,1 8 4 15 8 W 1021,0 20 -
17.07.2018 04:00:00 18,6 17,4 8 4 15 8 W 1021,1 20 0,0
17.07.2018 03:00:00 18,5 17,3 8 4 16 9 W 1021,7 20 0,0
17.07.2018 02:00:00 17,9 16,8 8 4 15 8 WSW 1021,6 20 -
17.07.2018 01:00:00 18,6 16,9 8 4 22 12 SW 1021,3 20 0,0
17.07.2018 00:00:00 20,0 17,6 15 8 35 19 W 1020,8 20 0,0
16.07.2018 23:00:00 20,4 17,8 18 10 29 16 W 1020,4 20 0,0
16.07.2018 22:00:00 20,5 18,1 16 9 26 14 W 1019,5 20 0,0
16.07.2018 21:00:00 21,1 18,5 16 9 35 19 W 1018,8 20 0,2
16.07.2018 20:00:00 21,2 18,6 15 8 42 23 W 1018,3 12 -
16.07.2018 19:00:00 21,6 18,6 21 11 39 21 W 1017,6 20 0,0
16.07.2018 18:00:00 20,7 17,1 29 16 52 28 W 1017,6 20 0,0
16.07.2018 17:00:00 23,1 17,8 26 14 41 22 WNW 1016,5 20 0,0
16.07.2018 16:00:00 22,7 19,7 21 11 41 22 WNW 1016,0 20 0,0
16.07.2018 15:00:00 21,7 18,3 22 12 39 21 W 1016,2 20 0,2
16.07.2018 14:00:00 19,5 18,0 16 9 42 23 W 1016,6 17 -
16.07.2018 13:00:00 20,1 18,6 13 7 21 11 WSW 1016,5 20 0,0
16.07.2018 12:00:00 18,8 18,3 8 4 26 14 SW 1016,8 20 1,0
16.07.2018 11:00:00 17,7 17,5 15 8 26 14 SW 1016,7 13 -
16.07.2018 10:00:00 17,5 17,2 5 3 16 9 NW 1016,7 9 8,0
16.07.2018 09:00:00 17,9 17,6 9 5 18 10 NNW 1015,8 10 8,0
16.07.2018 08:00:00 18,2 17,9 9 5 29 16 SW 1015,2 7 -
16.07.2018 07:00:00 19,0 18,5 13 7 22 12 N 1012,8 16 5,0
16.07.2018 06:00:00 19,6 19,1 5 3 16 9 N 1013,2 13 0,0
16.07.2018 05:00:00 20,2 19,7 11 6 24 13 W 1012,8 8 0,2
16.07.2018 04:00:00 20,1 19,9 5 3 16 9 W 1013,8 10 0,4
16.07.2018 03:00:00 20,4 20,2 9 5 28 15 W 1014,1 10 2,0
16.07.2018 02:00:00 19,6 19,4 9 5 18 10 NNW 1014,3 16 -
16.07.2018 01:00:00 18,8 18,5 9 5 106 57 WNW 1015,9 5 28,0
16.07.2018 00:00:00 22,2 19,4 5 3 29 16 S 1014,2 20 0,0
15.07.2018 23:00:00 23,0 16,1 4 2 26 14 S 1014,1 20 0,0
15.07.2018 22:00:00 25,9 17,5 18 10 34 18 NNW 1012,1 20 0,0
15.07.2018 21:00:00 27,6 18,9 9 5 15 8 NW 1012,0 20 0,0
15.07.2018 20:00:00 29,4 19,1 8 4 13 7 WNW 1011,5 20 -
15.07.2018 19:00:00 30,3 18,4 8 4 16 9 NW 1011,5 20 0,0
15.07.2018 18:00:00 31,5 17,4 5 3 15 8 WNW 1011,6 20 0,0
15.07.2018 17:00:00 31,8 18,0 4 2 13 7 N 1012,0 20 0,0
15.07.2018 16:00:00 31,7 15,6 2 1 18 10 ESE 1012,3 20 0,0
15.07.2018 15:00:00 30,6 16,2 4 2 18 10 ENE 1012,7 20 0,0
15.07.2018 14:00:00 29,4 17,6 5 3 13 7 N 1013,5 20 -
15.07.2018 13:00:00 28,8 18,3 2 1 9 5 E 1014,1 18 0,0
15.07.2018 12:00:00 26,9 18,2 2 1 9 5 NW 1014,7 20 0,0
15.07.2018 11:00:00 25,9 19,1 2 1 11 6 NE 1015,0 20 0,0
15.07.2018 10:00:00 23,1 18,2 5 3 11 6 S 1015,5 20 0,0
15.07.2018 09:00:00 21,0 17,6 5 3 9 5 ESE 1016,0 20 0,0
15.07.2018 08:00:00 18,3 18,0 4 2 8 4 WSW 1015,5 20 -
15.07.2018 07:00:00 16,8 16,5 5 3 13 7 NNE 1015,5 16 0,0
15.07.2018 06:00:00 17,0 16,4 5 3 11 6 NNW 1015,4 20 0,0
15.07.2018 05:00:00 17,6 16,8 5 3 11 6 ENE 1015,5 20 0,0
15.07.2018 04:00:00 18,2 16,7 9 5 42 23 SSW 1015,9 20 0,0
15.07.2018 03:00:00 19,2 16,1 9 5 37 20 E 1014,5 20 2,0
15.07.2018 02:00:00 18,1 16,8 22 12 91 49 SW 1018,8 18 -
15.07.2018 01:00:00 23,2 21,1 4 2 8 4 WSW 1015,1 20 0,0
15.07.2018 00:00:00 23,0 21,1 5 3 8 4 SW 1015,0 20 0,0
14.07.2018 23:00:00 23,6 21,1 4 2 8 4 W 1014,5 20 0,0
14.07.2018 22:00:00 24,6 20,9 5 3 9 5 WNW 1014,3 8 0,0
14.07.2018 21:00:00 28,3 21,6 4 2 4 2 W 1013,7 20 0,0
14.07.2018 20:00:00 30,5 19,8 2 1 8 4 SSW 1013,6 20 -
14.07.2018 19:00:00 31,2 19,5 5 3 15 8 NNE 1013,5 20 0,0
14.07.2018 18:00:00 31,2 18,5 4 2 16 9 ENE 1013,9 20 0,0
14.07.2018 17:00:00 30,6 18,7 4 2 21 11 NNE 1014,3 20 0,0
14.07.2018 16:00:00 30,9 18,9 8 4 18 10 NE 1014,6 20 0,0
14.07.2018 15:00:00 30,3 19,0 9 5 22 12 E 1015,3 20 0,0
14.07.2018 14:00:00 28,9 18,7 9 5 22 12 NE 1015,8 20 -
14.07.2018 13:00:00 27,2 20,3 8 4 15 8 NNE 1016,2 20 0,0
14.07.2018 12:00:00 24,8 20,1 8 4 15 8 ENE 1016,7 18 0,0
14.07.2018 11:00:00 21,8 19,9 8 4 15 8 NNE 1017,2 19 -
14.07.2018 10:00:00 20,3 19,0 5 3 15 8 N 1017,5 19 0,8
14.07.2018 09:00:00 20,4 18,9 4 2 18 10 S 1017,4 20 0,0
14.07.2018 08:00:00 19,1 18,8 11 6 16 9 S 1017,3 14 -
14.07.2018 07:00:00 17,9 17,6 5 3 8 4 SSE 1017,6 12 0,0
14.07.2018 06:00:00 18,1 17,9 5 3 9 5 W 1018,2 15 0,0
14.07.2018 05:00:00 17,6 17,3 0 0 9 5 N 1017,7 8 0,0
14.07.2018 04:00:00 17,8 17,3 5 3 9 5 NNW 1018,1 10 0,0
14.07.2018 03:00:00 18,5 17,7 5 3 22 12 WNW 1018,8 20 0,0
14.07.2018 02:00:00 19,3 17,6 9 5 24 13 S 1018,7 20 -
14.07.2018 01:00:00 19,2 17,7 15 8 52 28 S 1018,7 20 6,0
14.07.2018 00:00:00 22,1 17,2 16 9 29 16 NW 1018,4 19 0,2
13.07.2018 23:00:00 23,3 16,3 9 5 13 7 N 1016,9 20 0,0
13.07.2018 22:00:00 23,1 17,1 8 4 11 6 N 1016,4 17 0,0
13.07.2018 21:00:00 25,5 16,1 9 5 21 11 N 1015,9 20 0,0
13.07.2018 20:00:00 27,4 16,4 13 7 22 12 N 1015,7 20 -
13.07.2018 19:00:00 29,1 17,0 18 10 26 14 N 1015,4 20 0,0
13.07.2018 18:00:00 31,0 16,6 9 5 16 9 E 1015,8 20 0,0
13.07.2018 17:00:00 30,8 16,4 8 4 22 12 NNE 1016,0 20 0,0
13.07.2018 16:00:00 30,7 17,0 8 4 15 8 NW 1016,4 20 0,0
13.07.2018 15:00:00 29,9 16,0 5 3 15 8 NW 1016,9 20 0,0
13.07.2018 14:00:00 29,1 16,0 9 5 16 9 ENE 1017,5 19 -
13.07.2018 13:00:00 28,4 16,7 5 3 16 9 N 1018,1 20 0,0
13.07.2018 12:00:00 27,3 15,6 8 4 16 9 W 1018,8 20 0,0
13.07.2018 11:00:00 26,1 14,5 0 0 9 5 N 1018,6 20 0,0
13.07.2018 10:00:00 23,5 16,5 4 2 8 4 WNW 1018,5 20 0,0
13.07.2018 09:00:00 20,6 17,2 5 3 13 7 SSW 1018,5 19 0,0
13.07.2018 08:00:00 18,1 16,9 8 4 11 6 SSW 1018,4 19 -
13.07.2018 07:00:00 16,1 15,8 5 3 9 5 SSW 1018,6 13 0,0
13.07.2018 06:00:00 15,6 14,6 4 2 9 5 S 1018,5 19 0,0
13.07.2018 05:00:00 15,9 15,1 5 3 5 3 S 1018,1 20 0,0
13.07.2018 04:00:00 16,2 15,1 4 2 9 5 SSW 1018,3 20 0,0
13.07.2018 03:00:00 16,9 15,2 5 3 8 4 SSW 1018,2 20 0,0
13.07.2018 02:00:00 17,4 15,6 8 4 9 5 S 1018,1 20 -
13.07.2018 01:00:00 18,0 14,9 8 4 9 5 SW 1018,3 20 0,0
13.07.2018 00:00:00 18,3 15,4 4 2 8 4 NNE 1017,9 20 0,0
12.07.2018 23:00:00 19,9 16,3 5 3 11 6 NW 1017,7 20 0,0
12.07.2018 22:00:00 22,2 16,0 9 5 11 6 WNW 1017,0 15 0,0
12.07.2018 21:00:00 25,5 16,6 8 4 15 8 WSW 1016,2 20 0,0
12.07.2018 20:00:00 27,6 14,9 9 5 18 10 W 1015,9 20 -
12.07.2018 19:00:00 28,3 14,5 9 5 26 14 W 1015,6 20 0,0
12.07.2018 18:00:00 28,1 15,0 13 7 26 14 WNW 1015,7 20 0,0
12.07.2018 17:00:00 27,1 16,1 9 5 18 10 W 1015,7 20 0,0
12.07.2018 16:00:00 28,5 16,1 4 2 24 13 WNW 1015,4 20 0,0
12.07.2018 15:00:00 27,8 14,8 11 6 31 17 NW 1015,5 20 0,0
12.07.2018 14:00:00 28,3 15,6 11 6 21 11 WNW 1015,7 20 -
12.07.2018 13:00:00 27,6 15,3 8 4 21 11 WNW 1015,9 19 0,0
12.07.2018 12:00:00 25,8 14,3 11 6 21 11 WNW 1015,9 20 0,0
12.07.2018 11:00:00 24,8 14,9 5 3 15 8 WNW 1015,9 20 -
12.07.2018 10:00:00 22,1 14,0 5 3 13 7 NW 1016,0 20 0,0
12.07.2018 09:00:00 20,6 16,4 4 2 5 3 NNW 1015,7 20 0,0
12.07.2018 08:00:00 18,9 16,3 5 3 11 6 SSW 1015,5 20 -
12.07.2018 07:00:00 16,5 15,4 5 3 8 4 S 1015,3 20 0,0
12.07.2018 06:00:00 16,5 15,0 4 2 5 3 SW 1015,4 13 0,0
12.07.2018 05:00:00 16,4 14,8 8 4 9 5 SSW 1015,0 20 0,0
12.07.2018 04:00:00 16,5 14,3 5 3 8 4 S 1014,8 20 0,0
12.07.2018 03:00:00 16,7 15,1 2 1 8 4 W 1014,8 20 0,0
12.07.2018 02:00:00 17,9 15,3 4 2 5 3 W 1014,9 20 -
12.07.2018 01:00:00 18,7 15,9 2 1 5 3 W 1014,9 19 0,0
12.07.2018 00:00:00 20,6 16,2 2 1 5 3 W 1014,9 20 0,0
11.07.2018 23:00:00 22,2 14,6 8 4 11 6 N 1014,4 20 0,0
11.07.2018 22:00:00 23,4 14,7 8 4 13 7 N 1014,6 20 0,0
11.07.2018 21:00:00 25,8 13,6 9 5 26 14 N 1014,2 20 0,0
11.07.2018 20:00:00 27,1 13,8 13 7 28 15 NW 1013,9 20 -
11.07.2018 19:00:00 27,3 14,0 13 7 28 15 NNW 1013,9 20 0,0
11.07.2018 18:00:00 28,6 13,3 15 8 31 17 NW 1014,0 20 0,0
11.07.2018 17:00:00 28,5 14,3 13 7 28 15 NNW 1014,0 20 0,0
11.07.2018 16:00:00 28,7 13,8 11 6 28 15 NW 1014,3 20 0,0
11.07.2018 15:00:00 27,9 14,2 13 7 28 15 NW 1014,7 20 0,0
11.07.2018 14:00:00 27,4 13,3 13 7 31 17 NW 1015,1 20 -
11.07.2018 13:00:00 27,0 12,6 9 5 22 12 NNW 1015,7 20 0,0

tt = Température de l'air
td = dewpoint
ff = Vitesse du vent
fx = gusts
dd = Direction du vent
ppp = reduced air pressure
vv = visibility
rr = Quantités de précipitations

stations d'obs. à proximité